Regional Weather Roundup
Issued by NWS State College, PA

Home | Current Version | Previous Version | Graphics & Text | Print | Product List | Glossary Off
Versions: 1 2 3 4 5 6 7 8 9 10 11 12 13 14 15 16 17 18 19 20 21 22 23 24 25 26 27 28 29 30 31 32 33 34 35 36 37 38 39 40 41 42 43 44 45 46 47 48 49 50

000
ASUS41 KCTP 220803
RWRCTP

REGIONAL WEATHER ROUNDUP
NATIONAL WEATHER SERVICE STATE COLLEGE PA
400 AM EDT TUE JUL 22 2014

Note: "fair" indicates few or no clouds below 12,000 feet with no
significant weather and/or obstructions to visibility.

* = STATION THAT DOES NOT REPORT PRECIPITATION /E.G. RAIN...SNOW...ETC/
    THUNDER OR FOG.

PAZ002>004-007>009-013>016-020>023-029>032-220900-
WESTERN PENNSYLVANIA

CITY           SKY/WX    TMP DP  RH WIND       PRES   REMARKS
ERIE           CLEAR     67  61  81 S3        30.12S
MEADVILLE      CLEAR     68  63  84 CALM      30.14F
FRANKLIN*      PTCLDY    64  61  88 E5        30.16F
NEW CASTLE       N/A     64  64 100 CALM      30.14S FOG
BEAVER COUNTY  NOT AVBL
BUTLER*        CLEAR     66  64  94 NE3       30.15S VSB 1
PITTSBURGH INT CLEAR     71  68  90 CALM      30.13S
PITTSBURGH     CLEAR     71  66  84 S6        30.13S
INDIANA*       CLOUDY    66  66 100 CALM      30.19S
LATROBE        CLEAR     68  68 100 CALM      30.15R
WASHINGTON CO* PTCLDY    63  63 100 CALM      30.14S
$$

PAZ004>006-010>012-017>019-024>028-033>037-041-042-045-046-049>053-220900-
CENTRAL PENNSYLVANIA

CITY           SKY/WX    TMP DP  RH WIND       PRES   REMARKS
BRADFORD       FOG       63  62  97 CALM      30.19S VSB 1/4
DUBOIS         FOG       67  65  93 E3        30.17S VSB 1/4
CLEARFIELD     FOG       62  62 100 CALM      30.18S VSB 1/4
JOHNSTOWN      CLEAR     66  64  93 S5        30.20S
ALTOONA        CLEAR     67  66  97 SE3       30.18S
STATE COLLEGE  CLOUDY    67  66  99 CALM      30.18R FOG
WILLIAMSPORT   CLOUDY    68  64  87 N3        30.15S
SELINSGROVE    CLOUDY    67  65  93 CALM      30.17R FOG
FT INDIANTOWN  MOCLDY    67  67 100 NE2       30.17F
CAPITAL CITY   CLOUDY    70  65  84 CALM      30.16F
HARRISBURG     MOCLDY    73  66  78 SE5       30.16S
YORK           MOCLDY    64  63  96 CALM      30.17S
$$

PAZ038>040-043-044-047-048-054-055-060>062-067>071-220900-
EASTERN PENNSYLVANIA

CITY           SKY/WX    TMP DP  RH WIND       PRES   REMARKS
SCRANTON       PTCLDY    66  62  87 E5        30.18R
MOUNT POCONO   CLEAR     62  60  93 CALM      30.22R FOG
ALLENTOWN      CLEAR     65  63  93 CALM      30.17S
QUAKERTOWN*    SUNNY     63  63 100 CALM      30.19S
READING        CLOUDY    70  65  84 S5        30.16S HAZE
LANCASTER      CLOUDY    69  66  90 CALM      30.17S
COATESVILLE    SUNNY     64  64 100 CALM      30.19S
POTTSTOWN      PTCLDY    66  61  84 CALM      30.19S
BLUE BELL      CLEAR     63  61  94 CALM      30.17F
DOYLESTOWN     CLEAR     64  61  90 CALM      30.17S
WILLOW GROVE   NOT AVBL
NORTH PHILA    CLEAR     68  58  70 CALM      30.18F
PHILADELPHIA   CLEAR     71  62  73 SW3       30.17S
$$


USA.gov is the U.S. government's official web portal to all federal, state and local government web resources and services.